Regional Weather Roundup
Issued by NWS Upton, NY

Current Version | Previous Version | Text Only | Print | Product List | Glossary Off
Versions: 1 2 3 4 5 6 7 8 9 10 11 12 13 14 15 16 17 18 19 20 21 22 23 24 25 26 27 28 29 30 31 32 33 34 35 36 37 38 39 40 41 42 43 44 45 46 47 48 49 50
672 ASUS41 KOKX 241409 RWROKX REGIONAL WEATHER ROUNDUP NATIONAL WEATHER SERVICE NEW YORK NY 1000 AM EDT MON JUL 24 2017 NOTE: "FAIR" INDICATES FEW OR NO CLOUDS BELOW 12,000 FEET WITH NO SIGNIFICANT WEATHER AND/OR OBSTRUCTIONS TO VISIBILITY. NYZ071-072-176-178-NJZ106-104-241500- NEW YORK CITY METRO AREA CITY SKY/WX TMP DP RH WIND PRES REMARKS Central Park LGT RAIN 66 64 93 E12G21 29.78R FOG Bronx Bot Gard N/A N/A N/A N/A N7 29.78R LaGuardia APRT LGT RAIN 67 65 93 NE29G36 29.75F FOG Kennedy INTL LGT RAIN 74 72 93 E8 29.74F Breezy Point N/A 72 N/A N/A E10 N/A Newark/Liberty HVY RAIN 68 67 96 N22 29.73F FOG Teterboro RAIN 66 64 93 N8 29.76R FOG $$ NYZ177-179-078>081-241500- LONG ISLAND NEW YORK CITY SKY/WX TMP DP RH WIND PRES REMARKS Jones Beach N/A 72 N/A N/A SE13G22 N/A Matinecock PT N/A 64 N/A N/A NE30 N/A Farmingdale CLOUDY 71 69 93 E9 29.74F MacArthur/ISP DRIZZLE 70 70 100 E12 29.74F FOG Shirley LGT RAIN 71 70 96 VRB5 29.77S FOG Mt Sinai Harb N/A 64 N/A N/A NE18G26 N/A Westhampton HVY RAIN 69 66 90 NE12 29.77S VSB 1 East Hampton CLOUDY 66 64 94 E9G16 29.79R Montauk N/A 65 64 97 E12G24 29.80F $$ NYZ052-065-067-241500- HUDSON VALLEY CITY SKY/WX TMP DP RH WIND PRES REMARKS White Plains LGT RAIN 63 61 94 NE9G23 29.78S FOG Larchmont Harb N/A 63 N/A N/A N23G29 N/A Croton O-T Hud N/A 63 N/A N/A N6G14 N/A Newburgh RAIN 61 61 100 NE13G20 29.86R FOG Montgomery RAIN 63 60 90 NE10 29.81F FOG Poughkeepsie RAIN 60 58 92 N12 29.85R FOG Albany LGT RAIN 58 54 86 CALM 29.90R FOG $$ NJZ001-105-106-008-010-013-015-019>022-104-241500- NEW JERSEY CITY SKY/WX TMP DP RH WIND PRES REMARKS Newark/Liberty HVY RAIN 68 67 96 N22 29.73F FOG Teterboro RAIN 66 64 93 N8 29.76R FOG Caldwell HVY RAIN 65 32 29 N9 29.80R Somerville LGT RAIN 67 65 93 N9 29.75R Linden HVY RAIN 71 68 91 N12 29.74R Perth Amboy N/A 73 N/A N/A SW7 N/A Sussex MOSUNNY 64 62 93 NE10 29.80F Andover N/A 64 61 90 NE9G18 29.80F Trenton LGT RAIN 73 70 90 N14 29.75R Millville CLOUDY 78 77 96 SW10 29.76R Atlantic City CLOUDY 80 75 84 SW13 29.76R Wrightstown PTSUNNY 73 72 94 SW6 29.79R Toms River PTSUNNY 76 73 91 S8 29.75S Belmar LGT RAIN 75 72 90 S9 29.74F $$ PAZ047>061-062-071-241500- EASTERN PENNSYLVANIA CITY SKY/WX TMP DP RH WIND PRES REMARKS Philadelphia CLOUDY 76 72 87 SW13 29.75S Allentown MOSUNNY 72 64 76 N10 29.79R Scranton CLOUDY 69 64 84 VRB3 29.83R $$ CTZ002-004>006-009-010-012-RIZ004-006-007-MAZ004-011-015-241500- SOUTHERN NEW ENGLAND IN CT CITY SKY/WX TMP DP RH WIND PRES REMARKS Bradley INTL HVY RAIN 58 56 93 NE13 29.89F FOG Hartford HVY RAIN 60 58 92 N13 29.86F FOG Danbury LGT RAIN 59 57 93 NE10G21 29.83S FOG Wtrbury/Oxford LGT RAIN 55 52 88 E15 29.83F FOG Bridgeport LGT RAIN 61 58 90 NE17 29.80S FOG Meriden LGT RAIN 59 57 93 N7 29.85R New Haven CLOUDY 60 57 89 NE13 29.82S FOG Chester CLOUDY 59 57 94 NE8G15 29.83S Groton CLOUDY 61 58 90 NE14 29.82F Wilimantic RAIN 60 57 89 NE12 29.87F IN RI CITY SKY/WX TMP DP RH WIND PRES REMARKS Providence LGT RAIN 60 57 89 NE10 29.89F Block Island LGT RAIN 64 62 93 E13G24 29.81F Westerly LGT RAIN 62 59 90 NE10 29.84F IN MA CITY SKY/WX TMP DP RH WIND PRES REMARKS Boston LGT RAIN 61 55 81 E20 29.93F Worcester LGT RAIN 55 51 86 NE9G21 29.94R Westfield LGT RAIN 59 57 93 N7 29.90F Provincetown LGT RAIN 62 56 80 E13 29.93 Nantucket LGT RAIN 59 57 93 E18G29 29.88F FOG $$ ANZ330-335-338-340-345-350-353-355-241500- COASTAL MARINE OBSERVATIONS STATION/POSITION TIME SKY/WX TEMP WIND PRES VSBY WAVE AIR SEA DIR/SP/G HT/PER (UTC) (F) (DEG/KT/KT) (MB) (MI) (FT/S) NY HARB ENTRANCE 1250 74 73 130/ 8/ 14 1006.6 5/ 6 20 S FIRE ISLAND 1350 75 77 240/ 8/ 10 1006.4 7/ 6 GREAT SOUTH BAY 1330 73 80 80/ 16/ 17 N/A 23 SSW MONTAUK P 1250 71 73 1007.3 7/ 6 15 E BARNEGAT LI 1330 76 N/A 4/ 6 HUDSON CANYON 1250 76 77 170/ 10/ 12 1006.7 4/ 5 KINGS POINT 1336 65 72 90/ 8/ 11 1007.7 EXECUTION ROCKS NOT AVBL CENTRAL LI SOUND NOT AVBL EASTERN LI SOUND NOT AVBL ROBBINS REEF 1336 60/ 14/ 16 1007.1 $$ >>>>>>>>>>>>>>>>>>>>>>>>>>>> KEY <<<<<<<<<<<<<<<<<<<<<<<<<<< > < > SKY/WX - Sky Condition/Present Weather < > TMP - Temperature in Fahrenheit < > DP - Dew Point in Fahrenheit < > RH - Relative Humidity in Percent < > WIND - Direction (from) and Speed in MPH < > PRES - Mean Sea Level Pressure (inches of Hg) < > WCI - Wind Chill Index < > VSB - VISIBILITY IN MILES < > HX - HEAT INDEX < > TC - TEMPERATURE IN CELSIUS < > VRB - VARIABLE WIND DIRECTION < > < >>>>>>>>>>>>>>>>>>>>>>>>>>>> KEY <<<<<<<<<<<<<<<<<<<<<<<<<<<

USA.gov is the U.S. government's official web portal to all federal, state and local government web resources and services.